sat.trackr.live / text

‹ back to catalog

STARLINK-35941

NORAD 66583 · 2025-268AC

PAYLOAD ACTIVE UNKNOWN

§ Identity

Operator
Country
US
Launch date
2025-11-21
Launch site
AFETR
Launch vehicle
Mass (kg)
RCS (m²)

Purposes: comms

External: N2YO · Heavens-Above · Gunter

§ Orbital elements

Epoch: 2026-09-20T20:51:36.230112Z

Period
94.27 min
Inclination
42.9983°
Eccentricity
0.0001255
Mean motion
15.27589384 rev/d
Perigee alt
482.2 km
Apogee alt
483.9 km
Semi-major
6,861.2 km
B*
4.1869e-4
RAAN
324.4621°
Arg perigee
277.4438°
Mean anomaly
82.6271°
Rev number
4,781

§ Raw data

STARLINK-359411 66583U 25268AC  26263.86916933  .00011280  00000+0  41869-3 0  99972 66583  42.9983 324.4621 0001255 277.4438  82.6271 15.27589384 47813

JSON: /api/v1/satellites/66583 · /tle

For live sub-satellite position, see the globe view (requires WebGL).

§ Visibility from observer

Set your observer location to see the next 7 days of passes ≥ 10°. The values pass through the URL so the page stays shareable.

No JS? Fill the form by hand. The geolocation button needs JavaScript.